Home   Weather   Berkeley   Past weeks

Flag for USA Past Weather in Berkeley, California, USA — Yesterday and Last 2 Weeks

Now
51 °F

Overcast.


Feels Like: 48 °F
Forecast: 41 / 51 °F
Wind: 9 mph from South

Location: Metro Oakland International Airport

Current Time: Dec 7, 2016 at 12:24:30 pm

Latest Report: Dec 7, 2016 at 11:53 am


Visibility: 10 mi

Pressure: 30.17 "Hg

Humidity: 54%

Dew Point: 35 °F

Location of BerkeleyLocation

Past Weather in Berkeley — Graph

°F

Berkeley Temperature Yesterday

Maximum temperature yesterday: 58 °F (at 2:53 pm)
Minimum temperature yesterday: 43 °F (at 10:53 pm)
Average temperature yesterday: 49 °F

High & Low Weather Summary for the Past Weeks

 TemperatureHumidityPressure
High65 °F (Dec 2, 12:53 pm)100% (Nov 26, 8:53 am)30.37 "Hg (Nov 26, 8:53 am)
Low41 °F (Nov 24, 4:53 am)27% (Dec 2, 12:53 pm)29.79 "Hg (Nov 26, 4:53 am)
Average52 °F74%30.12 "Hg
* Reported Nov 22 10:53 am — Dec 7 10:53 am, Berkeley, Weather by CustomWeather, © 2016

Note: Actual official high and low records may vary slightly from our data, if they occured in-between our weather recording intervals... More about our weather records

Advertising

Berkeley Weather History for the Previous 24 Hours

Scroll right to see more
 ConditionsComfort  
Time TempWeatherWind HumidityBarometerVisibility
10:53 am
Wed, Dec 7
51 °FOvercast.9 mph50%30.19 "Hg10 mi
9:53 am48 °FOvercast.10 mph56%30.20 "Hg10 mi
8:53 am46 °FOvercast.9 mph66%30.20 "Hg10 mi
7:53 am44 °FPartly sunny.7 mph76%30.18 "Hg10 mi
6:53 am43 °FPassing clouds.5 mph79%30.17 "Hg10 mi
5:53 am43 °FClear.9 mph82%30.15 "Hg10 mi
4:53 am44 °FClear.7 mph79%30.14 "Hg10 mi
3:53 am44 °FClear.5 mph79%30.14 "Hg10 mi
2:53 am41 °FClear.No wind89%30.14 "Hg10 mi
1:53 am42 °FClear.No wind85%30.15 "Hg10 mi
12:53 am42 °FClear.3 mph85%30.15 "Hg10 mi
11:53 pm
Tue, Dec 6
44 °FClear.No wind85%30.15 "Hg10 mi
10:53 pm43 °FPassing clouds.5 mph86%30.14 "Hg10 mi
9:53 pm45 °FPassing clouds.3 mph82%30.13 "Hg10 mi
8:53 pm47 °FPassing clouds.3 mph74%30.11 "Hg10 mi
7:53 pm49 °FPassing clouds.3 mph74%30.10 "Hg10 mi
6:53 pm50 °FPassing clouds.8 mph71%30.10 "Hg10 mi
5:53 pm52 °FPassing clouds.15 mph72%30.09 "Hg10 mi
4:53 pm53 °FPassing clouds.14 mph66%30.08 "Hg10 mi
3:53 pm55 °FScattered clouds.16 mph62%30.07 "Hg10 mi
2:53 pm58 °FScattered clouds.7 mph51%30.07 "Hg10 mi
1:53 pm54 °FPartly sunny.7 mph59%30.07 "Hg10 mi
12:53 pm54 °FScattered clouds.3 mph55%30.08 "Hg10 mi
Weather by CustomWeather, © 2016

See weather overviewHow to use our weather pages